Location: Arclight Observatory
(36.5667°N, 87.3333°W)
Time: 19:03:16
(UTC-05:00)

ISS - Visible Passes

Search period start: 24 March 2017 00:00
Search period end: 03 April 2017 00:00
Orbit: 399 x 409 km, 51.6° (Epoch: 25 March)

Date Brightness Start Highest point End Pass type
(mag) Time Alt. Az. Time Alt. Az. Time Alt. Az.
24 Mar -3.6 05:24:21 48° SW 05:24:22 48° SW 05:27:34 10° SSE visible
25 Mar -0.7 04:35:20 10° SE 04:35:20 10° SE 04:35:21 10° SE visible
25 Mar -1.2 21:06:36 10° SW 21:07:13 15° SW 21:07:13 15° SW visible
26 Mar -3.5 20:14:26 10° SSW 20:17:31 43° SE 20:18:22 34° E visible
27 Mar -2.3 20:58:35 10° WSW 21:01:34 33° NW 21:01:58 32° NNW visible
28 Mar -3.5 20:05:52 10° WSW 20:09:05 65° NW 20:12:20 10° NE visible
28 Mar -0.3 21:44:48 10° NW 21:45:16 11° NW 21:45:16 11° NW visible
29 Mar -1.1 20:51:07 10° WNW 20:53:23 17° NNW 20:55:36 10° NNE visible
30 Mar -1.8 19:57:55 10° W 20:00:45 27° NNW 20:03:37 10° NNE visible
31 Mar -0.6 20:44:38 10° NNW 20:45:18 10° NNW 20:45:57 10° N visible
01 Apr -1.0 19:50:33 10° WNW 19:52:32 15° NNW 19:54:32 10° NNE visible
